SV4FFB-13 Weather Reports


time (UTC)temp
C
wind
direction
speed
KPH
gust
KPH
rain 1hr
cm
rain 24hr
cm
rain mn
cm
humidity
%
barometer
mb
20260508012337 16 0.0 0.0 0.00 0.00 0.00 10 1019.4
20260508011337 16 0.0 0.0 0.00 0.00 0.00 10 1019.9
20260508010337 15 0.0 0.0 0.00 0.00 0.00 10 1020.4
20260508005337 15 0.0 0.0 0.00 0.00 0.00 10 1020.4
20260508004337 15 0.0 0.0 0.00 0.00 0.00 10 1020.2
20260508003337 15 0.0 0.0 0.00 0.00 0.00 10 1020.2
20260508002338 15 0.0 0.0 0.00 0.00 0.00 10 1020.5
20260508001337 15 0.0 0.0 0.00 0.00 0.00 10 1020.6
20260508000338 15 0.0 0.0 0.00 0.00 0.00 10 1020.8
20260507235338 15 0.0 0.0 0.00 0.00 0.00 10 1020.6
20260507234338 16 0.0 0.0 0.00 0.00 0.00 10 1020.4
20260507233338 16 0.0 0.0 0.00 0.00 0.00 10 1020.5
20260507232337 16 0.0 0.0 0.00 0.00 0.00 10 1020.8
20260507231338 16 0.0 0.0 0.00 0.00 0.00 10 1020.8
20260507230338 15 0.0 0.0 0.00 0.00 0.00 10 1021.2
20260507225337 15 0.0 0.0 0.00 0.00 0.00 10 1021.2
20260507224337 15 0.0 0.0 0.00 0.00 0.00 10 1021.3
20260507223338 15 0.0 0.0 0.00 0.00 0.00 10 1021.1
20260507222338 15 0.0 0.0 0.00 0.00 0.00 10 1021.0
20260507221337 15 0.0 0.0 0.00 0.00 0.00 10 1020.8
20260507220337 16 0.0 0.0 0.00 0.00 0.00 10 1020.5
20260507215337 16 0.0 0.0 0.00 0.00 0.00 10 1020.9
20260507214337 16 0.0 0.0 0.00 0.00 0.00 10 1020.6
20260507213337 16 0.0 0.0 0.00 0.00 0.00 10 1020.1
20260507212337 16 0.0 0.0 0.00 0.00 0.00 10 1020.4
20260507211337 16 0.0 0.0 0.00 0.00 0.00 10 1020.4
20260507210337 17 0.0 0.0 0.00 0.00 0.00 10 1020.5
20260507205338 16 0.0 0.0 0.00 0.00 0.00 10 1020.6
20260507204338 16 0.0 0.0 0.00 0.00 0.00 10 1021.0
20260507203337 16 0.0 0.0 0.00 0.00 0.00 10 1020.8
20260507202338 16 0.0 0.0 0.00 0.00 0.00 10 1021.1
20260507201337 16 0.0 0.0 0.00 0.00 0.00 10 1021.2
20260507200337 16 0.0 0.0 0.00 0.00 0.00 10 1020.6
20260507195337 17 0.0 0.0 0.00 0.00 0.00 10 1020.7
20260507194337 17 0.0 0.0 0.00 0.00 0.00 10 1020.8
20260507193337 17 0.0 0.0 0.00 0.00 0.00 10 1020.7
20260507192337 17 0.0 0.0 0.00 0.00 0.00 10 1020.8
20260507191337 17 0.0 0.0 0.00 0.00 0.00 10 1020.8
20260507190337 17 0.0 0.0 0.00 0.00 0.00 10 1021.0
20260507185337 17 0.0 0.0 0.00 0.00 0.00 10 1020.9
20260507184338 17 0.0 0.0 0.00 0.00 0.00 10 1020.9
20260507183337 16 0.0 0.0 0.00 0.00 0.00 10 1020.9
20260507182337 16 0.0 0.0 0.00 0.00 0.00 10 1020.8
20260507181337 16 0.0 0.0 0.00 0.00 0.00 10 1020.4
20260507180337 17 0.0 0.0 0.00 0.00 0.00 10 1020.1
20260507175337 17 0.0 0.0 0.00 0.00 0.00 10 1020.0
20260507174339 17 0.0 0.0 0.00 0.00 0.00 10 1019.7
20260507173338 17 0.0 0.0 0.00 0.00 0.00 10 1019.5
20260507172337 18 0.0 0.0 0.00 0.00 0.00 10 1019.4
20260507171337 18 0.0 0.0 0.00 0.00 0.00 10 1019.4
20260507170337 18 0.0 0.0 0.00 0.00 0.00 10 1019.1
20260507165338 19 0.0 0.0 0.00 0.00 0.00 10 1019.0
20260507164337 19 0.0 0.0 0.00 0.00 0.00 10 1019.0
20260507163338 20 0.0 0.0 0.00 0.00 0.00 10 1018.9
20260507162336 20 0.0 0.0 0.00 0.00 0.00 10 1018.7
20260507161338 20 0.0 0.0 0.00 0.00 0.00 10 1018.4
20260507160336 20 0.0 0.0 0.00 0.00 0.00 10 1018.2
20260507155336 21 0.0 0.0 0.00 0.00 0.00 10 1017.9
20260507154336 22 0.0 0.0 0.00 0.00 0.00 10 1017.9
20260507153336 22 0.0 0.0 0.00 0.00 0.00 10 1017.9
20260507152336 23 0.0 0.0 0.00 0.00 0.00 10 1017.3
20260507151337 22 0.0 0.0 0.00 0.00 0.00 10 1017.7
20260507150336 25 0.0 0.0 0.00 0.00 0.00 10 1017.1
20260507145337 25 0.0 0.0 0.00 0.00 0.00 10 1017.4
20260507144336 25 0.0 0.0 0.00 0.00 0.00 10 1017.7
20260507143336 25 0.0 0.0 0.00 0.00 0.00 10 1017.3
20260507142336 24 0.0 0.0 0.00 0.00 0.00 10 1017.7
20260507141336 27 0.0 0.0 0.00 0.00 0.00 10 1017.2
20260507140336 27 0.0 0.0 0.00 0.00 0.00 10 1017.0
20260507135336 26 0.0 0.0 0.00 0.00 0.00 10 1017.3
20260507134336 25 0.0 0.0 0.00 0.00 0.00 10 1017.6
20260507133336 26 0.0 0.0 0.00 0.00 0.00 10 1017.3
20260507132336 29 0.0 0.0 0.00 0.00 0.00 10 1017.0
20260507131337 28 0.0 0.0 0.00 0.00 0.00 10 1016.9
20260507130336 28 0.0 0.0 0.00 0.00 0.00 10 1017.3
20260507125336 26 0.0 0.0 0.00 0.00 0.00 10 1017.7
20260507124336 24 0.0 0.0 0.00 0.00 0.00 10 1018.1
20260507123336 25 0.0 0.0 0.00 0.00 0.00 10 1017.9
20260507122336 26 0.0 0.0 0.00 0.00 0.00 10 1017.9
20260507121336 23 0.0 0.0 0.00 0.00 0.00 10 1018.3
20260507120336 23 0.0 0.0 0.00 0.00 0.00 10 1018.5
20260507115336 26 0.0 0.0 0.00 0.00 0.00 10 1018.2
20260507114336 24 0.0 0.0 0.00 0.00 0.00 10 1018.6
20260507113336 23 0.0 0.0 0.00 0.00 0.00 10 1018.9
20260507112336 23 0.0 0.0 0.00 0.00 0.00 10 1019.0
20260507111338 24 0.0 0.0 0.00 0.00 0.00 10 1018.8
20260507110336 24 0.0 0.0 0.00 0.00 0.00 10 1018.6
20260507105336 24 0.0 0.0 0.00 0.00 0.00 10 1018.6
20260507104336 22 0.0 0.0 0.00 0.00 0.00 10 1019.0
20260507103336 22 0.0 0.0 0.00 0.00 0.00 10 1018.9
20260507102336 22 0.0 0.0 0.00 0.00 0.00 10 1018.8
20260507101336 21 0.0 0.0 0.00 0.00 0.00 10 1018.8
20260507100336 21 0.0 0.0 0.00 0.00 0.00 10 1018.9
20260507095336 21 0.0 0.0 0.00 0.00 0.00 10 1018.9
20260507094336 21 0.0 0.0 0.00 0.00 0.00 10 1018.9
20260507093336 22 0.0 0.0 0.00 0.00 0.00 10 1018.6
20260507092336 22 0.0 0.0 0.00 0.00 0.00 10 1018.7
20260507091336 23 0.0 0.0 0.00 0.00 0.00 10 1018.5
20260507090336 23 0.0 0.0 0.00 0.00 0.00 10 1018.4
20260507085336 23 0.0 0.0 0.00 0.00 0.00 10 1018.3
20260507084336 22 0.0 0.0 0.00 0.00 0.00 10 1018.6
20260507083336 22 0.0 0.0 0.00 0.00 0.00 10 1018.9
20260507082336 21 0.0 0.0 0.00 0.00 0.00 10 1018.8
20260507081337 21 0.0 0.0 0.00 0.00 0.00 10 1018.9
20260507080336 22 0.0 0.0 0.00 0.00 0.00 10 1018.5
20260507075336 21 0.0 0.0 0.00 0.00 0.00 10 1018.5
20260507074336 21 0.0 0.0 0.00 0.00 0.00 10 1018.7
20260507073336 21 0.0 0.0 0.00 0.00 0.00 10 1018.5
20260507072336 20 0.0 0.0 0.00 0.00 0.00 10 1018.9
20260507071336 20 0.0 0.0 0.00 0.00 0.00 10 1018.9
20260507070336 20 0.0 0.0 0.00 0.00 0.00 10 1018.9
20260507065336 20 0.0 0.0 0.00 0.00 0.00 10 1019.0
20260507064336 20 0.0 0.0 0.00 0.00 0.00 10 1019.2
20260507063336 20 0.0 0.0 0.00 0.00 0.00 10 1019.0
20260507062337 20 0.0 0.0 0.00 0.00 0.00 10 1018.8
20260507061336 20 0.0 0.0 0.00 0.00 0.00 10 1018.7
20260507060336 19 0.0 0.0 0.00 0.00 0.00 10 1018.7
20260507055336 18 0.0 0.0 0.00 0.00 0.00 10 1018.5
20260507054336 18 0.0 0.0 0.00 0.00 0.00 10 1018.5
20260507053336 18 0.0 0.0 0.00 0.00 0.00 10 1019.4
20260507052336 17 0.0 0.0 0.00 0.00 0.00 10 1019.5
20260507051336 16 0.0 0.0 0.00 0.00 0.00 10 1019.3
20260507050336 16 0.0 0.0 0.00 0.00 0.00 10 1019.2
20260507045336 15 0.0 0.0 0.00 0.00 0.00 10 1019.2
20260507044337 15 0.0 0.0 0.00 0.00 0.00 10 1019.3
20260507043336 15 0.0 0.0 0.00 0.00 0.00 10 1018.9
20260507042336 14 0.0 0.0 0.00 0.00 0.00 10 1019.1
20260507041336 13 0.0 0.0 0.00 0.00 0.00 10 1019.3
20260507040336 13 0.0 0.0 0.00 0.00 0.00 10 1019.2
20260507035336 13 0.0 0.0 0.00 0.00 0.00 10 1019.3
20260507034336 13 0.0 0.0 0.00 0.00 0.00 10 1019.3
20260507033337 12 0.0 0.0 0.00 0.00 0.00 10 1019.3
20260507032336 12 0.0 0.0 0.00 0.00 0.00 10 1019.1
20260507031337 12 0.0 0.0 0.00 0.00 0.00 10 1019.0
20260507030336 12 0.0 0.0 0.00 0.00 0.00 10 1018.8
20260507025337 12 0.0 0.0 0.00 0.00 0.00 10 1018.7
20260507024336 12 0.0 0.0 0.00 0.00 0.00 10 1018.6
20260507023336 12 0.0 0.0 0.00 0.00 0.00 10 1018.4
20260507022337 12 0.0 0.0 0.00 0.00 0.00 10 1018.1
20260507021336 13 0.0 0.0 0.00 0.00 0.00 10 1017.7
20260507020337 13 0.0 0.0 0.00 0.00 0.00 10 1017.9
20260507015336 13 0.0 0.0 0.00 0.00 0.00 10 1017.8
20260507014337 13 0.0 0.0 0.00 0.00 0.00 10 1017.4
20260507013337 14 0.0 0.0 0.00 0.00 0.00 10 1017.3